Regional Weather Roundup
Issued by NWS

Home | Current Version | Previous Version | Text Only | Print | Product List | Glossary Off
Versions: 1 2 3 4 5 6 7 8 9 10 11 12 13 14 15 16 17 18 19 20 21 22 23 24 25 26 27 28 29 30 31 32 33 34 35 36 37 38 39 40 41 42 43 44 45 46 47 48 49 50

000
ASUS43 KDTX 221610
RWRMI
MICHIGAN HOURLY REGIONAL WEATHER ROUNDUP
NATIONAL WEATHER SERVICE DETROIT/PONTIAC MI
ISSUED BY NATIONAL WEATHER SERVICE GRAND RAPIDS MI
1100 AM EST WED FEB 22 2017

NOTE: "FAIR" INDICATES FEW OR NO CLOUDS BELOW 12,000 FEET WITH NO
SIGNIFICANT WEATHER AND/OR OBSTRUCTION TO VISIBILITY.

MIZ047>049-052>055-059>063-066>070-074>076-081>083-221700-
SOUTHEAST LOWER MICHIGAN

CITY           SKY/WX    TMP DP  RH WIND       PRES   REMARKS
ADRIAN         CLOUDY    55  54  96 W7        29.85F FOG
ALMA           FOG       51  50  97 SW7       29.80F VSB 1/4
ANN ARBOR      CLOUDY    55  54  96 S8        29.84S FOG
BAD AXE        SUNNY     53  53 100 SW7       29.79F
DETROIT CITY   MOSUNNY   58  52  80 SW9       29.84F HAZE
DETROIT        CLOUDY    58  53  84 SW13      29.85F FOG
FLINT          CLOUDY    55  52  89 W13       29.83R FOG
GROSSE ILE     PTSUNNY   50  47  90 S3        29.84F
HILLSDALE      CLOUDY    54  52  94 S6        29.83S FOG
HOWELL         PTSUNNY   58  51  77 SW8G16    29.82R

CITY           SKY/WX    TMP DP  RH WIND       PRES   REMARKS
JACKSON        CLOUDY    58  53  84 SW12      29.82F
LANSING        CLOUDY    56  51  84 SW12      29.82S HAZE
MASON          CLOUDY    57  55  92 SW7       29.82S
MONROE         PTSUNNY   59  56  89 SW9       29.83F
MT. CLEMENS    MOSUNNY   62  54  74 SW8       29.82S HAZE
PONTIAC        MOSUNNY   57  51  80 SW9       29.82R
PORT HOPE        N/A     57  51  80 SW8       29.76F
PORT HURON     CLOUDY    55  50  82 SW6       29.83F HAZE
TRI CITIES     FOG       52  51  97 SW12      29.80S VSB 1
YPSILANTI      CLOUDY    54  54 100 SW9       29.85S FOG
$$
MIZ043>046-050>051-056>058-064>065-071>073-077>080-221700-
SOUTHWEST LOWER MICHIGAN

CITY           SKY/WX    TMP DP  RH WIND       PRES   REMARKS
BATTLE CREEK   CLOUDY    57  53  86 SW10      29.83R FOG
BENTON HARBOR  CLOUDY    59  53  80 W10       29.80S HAZE
BIG RAPIDS     FOG       52  51  97 S6        29.75F VSB 1/2
COLDWATER      CLOUDY    56  55  93 SW9       29.83S FOG
HOLLAND        CLOUDY    57  53  86 SW13G22   29.79F FOG
GRAND RAPIDS   CLOUDY    55  52  89 SW9       29.79F FOG
KALAMAZOO      CLOUDY    57  52  83 S9        29.82S HAZE
MARSHALL       CLOUDY    57  54  92 SW9G16    29.82S FOG
MOUNT PLEASANT FOG       50  49  98 S5        29.78S VSB 1/4
MUSKEGON       FOG       53  52  96 S16       29.76F VSB 1/2
STURGIS        CLOUDY    55  54  94 SW12      29.82S FOG
$$
MIZ016>042-221700-
NORTHERN LOWER MICHIGAN

CITY           SKY/WX    TMP DP  RH WIND       PRES   REMARKS
ALPENA         CLOUDY    52  49  89 SW8       29.73F
BEAVER ISLAND  MOSUNNY   51  46  84 SW12G20   29.66S
BELLAIRE       MOSUNNY   56  50  79 S5        29.68F
CADILLAC       CLOUDY    52  51  97 SW10      29.71F FOG
CHARLEVOIX     SUNNY     55  49  82 S10G16    29.69F
GAYLORD        CLOUDY    47  43  86 S8        29.70F FOG
HOUGHTON LAKE  CLOUDY    51  50  96 S6        29.75S FOG
MANISTEE       CLOUDY    57  51  80 SW12G17   29.70F
OSCODA         CLOUDY    49  48  97 SW9G16    29.76S FOG
PELLSTON       SUNNY     54  44  69 S7        29.67F
TRAVERSE CITY  CLOUDY    56  50  80 SW9G18    29.68F
LUDINGTON      CLOUDY    52  51  99 S13       29.72F FOG
$$
MIZ007>008-015-221700-
EASTERN UPPER MICHIGAN

CITY           SKY/WX    TMP DP  RH WIND       PRES   REMARKS
KINROSS        SUNNY     44  39  82 SE3       29.67F
MACKINAC ISLAN SUNNY     51  42  73 CALM      29.65F
NEWBERRY       CLOUDY    38  37  97 W5        29.65S FOG     WCI  34
S. S. MARIE    SUNNY     40  37  89 E6        29.67F
$$
MIZ004>006-011>014-085-221700-
CENTRAL UPPER MICHIGAN

CITY           SKY/WX    TMP DP  RH WIND       PRES   REMARKS
MANISTIQUE     CLOUDY    40  39  98 S9G16     29.65S FOG     WCI  33
ESCANABA       MOSUNNY   43  37  79 E3        29.63F
MENOMINEE      PTSUNNY   46  39  76 VRB5      29.66S
SAWYER-GWINN   PTSUNNY   43  37  81 CALM      29.62F
$$
MIZ001>003-009>011-084-221700-
WESTERN UPPER MICHIGAN

CITY           SKY/WX    TMP DP  RH WIND       PRES   REMARKS
IRON MOUNTAIN  CLOUDY    49  36  61 NW3       29.60F
HOUGHTON       CLOUDY    40  32  73 NW3       29.62R
COPPER HARBOR    N/A     37  35  92 N7        29.62F WCI  32
IRONWOOD       CLOUDY    42  38  85 CALM      29.62F
$$

ABBREVIATIONS USED IN REMARKS
   TC - TEMPERATURE IN CELSIUS
  WCI - WIND CHILL INDEX
   HX - HEAT INDEX
  VSB - VISIBILITY





USA.gov is the U.S. government's official web portal to all federal, state and local government web resources and services.